Chadron, NE

9:36 PM MDT on June 22, 2017 (GMT -0600)
Chadron Municipal

Weather History for KCDR - May, 2013

Change the Weather History Date:

Friday, May 10, 2013

  Actual Average Record
Temperature  
Mean Temperature 56 °F 54 °F  
Max Temperature 75 °F 69 °F 93 °F (2012)
Min Temperature 37 °F 39 °F 24 °F (1990)
Degree Days  
Heating Degree Days 9 12  
Month to date heating degree days 168 132  
Since 1 July heating degree days 6719 6895  
Cooling Degree Days 0 0  
Month to date cooling degree days 0 0  
Year to date cooling degree days 0 2  
Growing Degree Days 5 (Base 50)    
Moisture  
Dew Point 40 °F    
Average Humidity 64    
Maximum Humidity 100    
Minimum Humidity 27    
Precipitation  
Precipitation T in 0.08 in 1.01 in (2017)
Month to date precipitation 0.01 0.84  
Year to date precipitation 4.82 5.02  
Sea Level Pressure  
Sea Level Pressure 30.17 in    
Wind  
Wind Speed 9 mph (NW)    
Max Wind Speed 37 mph    
Max Gust Speed 48 mph    
Visibility 10 miles    
Events      
T = Trace of Precipitation, MM = Missing Value Source: NWS Daily Summary

Daily Weather History Graph

Daily Weather History Graph

Search for Another Location

Airport or City:

Trip Planner

Search our weather history database for the weather conditions in past years. The results will help you decide how hot, cold, wet, or windy it might be!

Date:

Astronomy

May. 10, 2013 Rise Set
Actual Time 5:34 AM MDT 8:03 PM MDT
Civil Twilight 5:02 AM MDT 8:35 PM MDT
Nautical Twilight 4:23 AM MDT 9:15 PM MDT
Astronomical Twilight 3:38 AM MDT 10:00 PM MDT
Moon 6:00 AM MDT (5/10) 8:55 PM MDT (5/10)
Length of Visible Light 15h 32m
Length of Day
14h 28m
New Moon, 1% of the Moon is Illuminated
May 10
New Moon
May 17
First Quarter
May 24
Full
May 31
Last Quarter
Jun 8
New

Hourly Weather History & Observations

Time (MDT) Temp. Windchill Dew Point Humidity Pressure Visibility Wind Dir Wind Speed Gust Speed Precip Events Conditions
12:53 AM 45.0 °F 43.5 °F 42.1 °F 90% 30.17 in 9.0 mi SW 3.5 mph - N/A   Clear
2:53 AM 41.0 °F 38.0 °F 39.0 °F 93% 30.16 in 8.0 mi WSW 4.6 mph - N/A   Clear
3:53 AM 39.0 °F 34.8 °F 37.0 °F 93% 30.17 in 7.0 mi WSW 5.8 mph - N/A   Clear
4:53 AM 37.9 °F 32.1 °F 37.0 °F 97% 30.17 in 7.0 mi WSW 8.1 mph - N/A   Clear
7:53 AM 51.1 °F - 44.1 °F 77% 30.17 in 10.0 mi West 6.9 mph - N/A   Clear
8:53 AM 57.9 °F - 45.0 °F 62% 30.16 in 10.0 mi West 8.1 mph - N/A   Clear
9:53 AM 63.0 °F - 44.1 °F 50% 30.15 in 10.0 mi West 8.1 mph - N/A   Clear
11:53 AM 71.1 °F - 39.9 °F 32% 30.11 in 10.0 mi North 8.1 mph 16.1 mph N/A   Clear
12:53 PM 72.0 °F - 37.0 °F 28% 30.11 in 10.0 mi NE 9.2 mph - N/A   Partly Cloudy
1:53 PM 72.0 °F - 36.0 °F 27% 30.11 in 10.0 mi Variable 3.5 mph - N/A   Scattered Clouds
2:53 PM 63.0 °F - 42.1 °F 46% 30.16 in 10.0 mi WNW 11.5 mph 20.7 mph 0.00 in   Overcast
3:53 PM 70.0 °F - 39.0 °F 32% 30.12 in 10.0 mi WSW 6.9 mph - 0.00 in   Partly Cloudy
4:53 PM 71.1 °F - 36.0 °F 28% 30.11 in 10.0 mi WNW 6.9 mph - N/A   Clear
5:53 PM 73.9 °F - 37.0 °F 26% 30.11 in 10.0 mi NNW 8.1 mph - N/A   Scattered Clouds
6:53 PM 66.0 °F - 41.0 °F 40% 30.17 in 10.0 mi NNE 26.5 mph 34.5 mph 0.00 in   Scattered Clouds
7:53 PM 64.0 °F - 41.0 °F 43% 30.19 in 10.0 mi NNE 13.8 mph - N/A   Overcast
8:53 PM 60.1 °F - 41.0 °F 49% 30.22 in 10.0 mi NNE 12.7 mph - N/A   Mostly Cloudy
9:53 PM 57.0 °F - 42.1 °F 57% 30.26 in 10.0 mi NNE 3.5 mph - N/A   Mostly Cloudy
10:53 PM 55.9 °F - 42.1 °F 60% 30.29 in 10.0 mi NNE 13.8 mph 19.6 mph N/A   Overcast
11:53 PM 54.0 °F - 30.9 °F 41% 30.30 in 10.0 mi NNE 12.7 mph - N/A   Overcast